Temperature
3 4 4 4 4 4 4 6 6 7 7 7 7 6 5 4 4 3 3 3 3 3 3 4 4 4 4 5 5 5 5 6 6 6 5 5 5 5 5 5 5 5 5 5
3 3 4 4 4 4 5 5 6 6 6 6 5 5 4 4 3 3 3 3 3 3 3 4 4 4 4 4 4 5 5 5 5 5 5 5 5 5 5 5 5 5 5 4
3 3 3 4 4 4 4 5 5 6 6 5 4 4 4 3 2 2 2 2 2 3 3 3 3 3 3 4 4 4 4 4 5 5 5 4 4 4 4 4 4 4 4 4
2 3 3 4 3 4 4 3 4 4 4 4 4 3 2 2 2 2 2 2 2 2 3 3 3 3 3 3 4 4 4 4 4 4 4 4 4 4 4 4 4 4 4 4
2 3 4 3 2 2 2 3 3 3 3 2 1 2 2 1 1 1 1 2 2 2 2 2 3 3 3 3 3 3 3 4 4 4 4 4 3 4 3 3 3 3 3 3
2 3 3 3 2 1 2 3 2 2 2 1 1 3 3 1 1 1 1 1 1 2 2 2 2 2 2 3 3 3 3 3 3 3 3 3 3 3 3 3 3 3 3 3
1 2 3 2 0 1 3 3 1 1 1 0 1 2 0 -0 -0 0 0 1 1 1 2 2 2 2 2 2 3 3 3 3 3 3 3 3 3 3 3 2 2 2 2 2
1 2 2 0 0 1 1 -0 -1 -1 -1 -1 -1 -1 -1 -1 -1 -0 -0 0 1 1 1 1 2 2 2 2 2 2 2 2 2 2 2 2 2 2 2 2 2 2 2 2
0 1 0 -1 -1 -1 -2 -2 -1 -2 -2 -2 -2 -2 -2 -2 -1 -1 -1 -0 -0 0 1 1 1 1 1 2 2 1 1 2 1 1 1 1 1 1 1 1 1 1 1 1
-1 -0 -1 -2 -2 -2 -2 -2 -2 -3 -3 -2 -3 -2 -2 -2 -2 -2 -1 -1 -0 0 0 1 1 1 1 1 1 1 1 1 1 1 1 1 1 1 1 1 1 1 0 0
-1 -1 -2 -2 -3 -3 -3 -3 -3 -3 -3 -3 -3 -3 -3 -3 -2 -2 -2 -1 -1 -1 0 0 1 1 1 1 1 1 1 0 0 0 0 0 0 0 0 0 0 0 -0 -0
-1 -2 -2 -3 -3 -4 -3 -3 -3 -3 -3 -3 -3 -3 -3 -3 -3 -2 -2 -2 -1 -1 -0 -0 -0 0 0 0 0 0 -0 -0 -0 -0 -0 -0 -0 -0 -1 -0 -0 -0 -1 -1
-4 -4 -4 -4 -4 -4 -4 -4 -4 -4 -4 -4 -4 -3 -3 -3 -3 -3 -2 -2 -2 -1 -1 -1 -1 -1 -1 -0 -0 -0 -0 -1 -1 -1 -1 -1 -1 -1 -1 -1 -1 -1 -1 -1
-5 -5 -5 -5 -5 -4 -4 -4 -4 -4 -4 -4 -4 -4 -4 -4 -4 -3 -3 -3 -2 -2 -2 -1 -1 -1 -1 -1 -1 -1 -1 -1 -1 -1 -2 -2 -2 -2 -2 -2 -2 -2 -2 -2
-5 -5 -5 -5 -5 -5 -5 -5 -4 -4 -4 -4 -4 -4 -4 -4 -4 -4 -4 -3 -3 -3 -2 -2 -2 -2 -2 -2 -2 -2 -2 -2 -2 -2 -2 -2 -2 -2 -2 -2 -2 -2 -2 -2
-6 -6 -6 -6 -6 -5 -5 -5 -5 -5 -5 -5 -5 -5 -5 -5 -4 -4 -4 -4 -4 -3 -3 -3 -2 -2 -3 -3 -3 -3 -3 -3 -3 -3 -3 -3 -3 -3 -3 -3 -3 -3 -3 -3
-7 -7 -6 -6 -6 -6 -6 -6 -5 -5 -5 -5 -5 -5 -5 -5 -5 -5 -5 -4 -4 -4 -4 -3 -3 -3 -3 -3 -3 -3 -3 -3 -3 -3 -3 -3 -3 -3 -3 -3 -3 -3 -3 -3
-6 -6 -6 -6 -6 -6 -6 -6 -6 -6 -6 -6 -6 -6 -6 -6 -5 -5 -5 -5 -5 -4 -4 -4 -4 -4 -4 -4 -4 -4 -4 -4 -4 -4 -4 -3 -3 -4 -4 -4 -4 -4 -4 -4
-6 -6 -6 -6 -6 -6 -6 -6 -6 -6 -6 -6 -6 -6 -6 -6 -6 -6 -6 -5 -5 -5 -5 -5 -5 -5 -5 -5 -4 -4 -4 -4 -4 -4 -4 -4 -4 -4 -4 -4 -4 -4 -4 -4
-7 -7 -7 -6 -6 -6 -6 -6 -6 -6 -7 -7 -7 -7 -6 -6 -6 -6 -6 -6 -6 -6 -5 -5 -5 -5 -5 -5 -5 -5 -5 -5 -5 -4 -4 -4 -4 -4 -4 -4 -5 -5 -5 -5
-7 -7 -7 -7 -7 -7 -7 -7 -7 -7 -7 -7 -7 -7 -7 -7 -7 -7 -6 -6 -6 -6 -6 -6 -6 -6 -6 -5 -5 -5 -5 -5 -5 -5 -5 -5 -5 -5 -5 -5 -5 -5 -5 -5
-7 -7 -7 -7 -7 -7 -7 -7 -7 -7 -7 -7 -7 -7 -7 -7 -7 -7 -7 -7 -6 -6 -6 -6 -6 -6 -6 -6 -6 -6 -6 -6 -5 -5 -5 -5 -5 -5 -5 -5 -5 -5 -5 -5
-8 -8 -8 -8 -7 -7 -7 -7 -7 -8 -8 -8 -8 -8 -8 -8 -7 -7 -7 -7 -7 -7 -7 -7 -6 -6 -6 -6 -6 -6 -6 -6 -6 -6 -6 -6 -6 -6 -6 -6 -6 -6 -5 -5
-8 -8 -8 -8 -8 -8 -8 -8 -8 -8 -8 -8 -8 -8 -8 -8 -8 -7 -7 -7 -7 -7 -7 -7 -7 -7 -7 -7 -7 -7 -7 -6 -6 -6 -6 -6 -6 -6 -6 -6 -6 -6 -6 -6
-8 -8 -8 -8 -8 -8 -8 -8 -8 -9 -9 -9 -9 -8 -8 -8 -8 -8 -8 -8 -8 -8 -7 -7 -7 -7 -7 -7 -7 -7 -7 -7 -7 -7 -7 -7 -7 -6 -6 -6 -6 -6 -6 -6
-8 -9 -9 -9 -9 -9 -9 -9 -9 -9 -9 -9 -9 -9 -8 -8 -8 -8 -8 -8 -8 -8 -8 -8 -8 -8 -7 -7 -7 -7 -7 -7 -7 -7 -7 -7 -7 -7 -7 -7 -6 -6 -6 -6
-9 -9 -9 -9 -9 -9 -9 -9 -9 -9 -9 -9 -9 -9 -9 -9 -9 -8 -8 -8 -8 -8 -8 -8 -8 -8 -8 -7 -7 -7 -7 -7 -7 -7 -7 -7 -7 -7 -7 -7 -7 -7 -6 -6
Wind_Speed
4 3 4 6 7 8 9 9 8 8 7 6 5 4 3 2 2 1 2 2 1 1 1 0 0 0 1 1 2 2 3 3 4 5 5 5 5 5 5 4 4 4 3 3
2 2 4 5 7 9 9 9 9 8 8 5 5 4 4 3 2 2 2 2 1 1 1 1 0 0 1 1 1 2 2 2 3 4 5 5 5 5 4 4 4 3 3 3
2 2 3 5 7 8 7 7 8 10 8 4 4 5 5 4 3 3 2 3 2 2 2 1 1 1 1 2 2 2 2 2 3 4 4 5 5 5 4 4 4 3 3 3
1 2 5 1 1 4 5 5 5 6 5 5 5 6 4 3 2 2 3 3 3 2 2 1 1 1 1 1 2 2 2 2 2 3 4 4 5 4 4 4 3 3 3 3
2 3 4 2 1 1 4 5 4 5 5 4 4 3 2 1 2 3 4 3 3 2 1 1 0 0 1 2 2 2 1 1 2 3 4 4 4 4 4 3 3 2 2 2
2 3 4 2 2 4 3 3 1 3 4 3 2 3 3 3 4 4 4 3 2 1 0 0 0 1 1 1 1 1 1 1 2 3 3 4 4 4 3 3 3 2 2 2
4 4 4 3 4 2 3 2 3 4 4 4 4 4 3 4 4 3 3 3 2 1 0 0 0 1 1 1 1 1 0 1 1 2 3 3 3 3 3 2 2 2 1 1
3 4 3 3 2 1 3 5 5 4 3 3 3 3 3 3 3 3 3 2 2 1 1 1 1 1 1 1 1 1 1 1 2 2 2 2 3 2 3 3 2 1 1 0
3 3 3 3 3 4 5 5 5 4 4 3 3 3 3 3 3 2 2 2 2 2 2 1 1 1 1 0 1 2 2 2 2 2 2 2 2 2 3 2 2 1 1 0
3 4 5 5 4 5 5 5 5 4 3 3 2 2 3 3 2 3 3 3 2 2 2 1 1 1 1 1 2 2 2 2 2 2 2 2 2 2 2 2 2 1 1 0
5 6 5 3 4 6 6 5 4 4 3 2 1 2 2 2 2 2 2 3 2 2 2 2 2 2 2 1 2 2 2 2 2 2 2 2 2 1 0 0 1 1 1 1
4 4 4 6 5 6 5 4 4 3 3 2 1 1 2 2 2 2 2 2 2 2 2 2 2 2 1 1 2 3 2 2 2 2 2 2 2 2 3 2 2 2 1 1
5 5 5 5 5 4 3 3 3 3 2 2 2 1 1 1 2 2 2 2 2 2 2 2 2 2 1 1 1 2 2 2 2 2 2 2 2 2 2 3 3 3 3 3
4 4 3 3 3 4 3 3 2 2 2 2 2 1 1 1 1 2 2 2 2 2 2 2 2 2 2 1 1 2 2 2 2 2 1 1 1 1 1 1 1 2 3 3
3 3 3 3 3 3 2 2 2 2 3 3 2 2 1 1 2 2 2 2 2 2 2 2 2 2 2 1 1 2 2 2 2 2 1 1 1 1 1 1 1 1 2 2
4 2 2 2 2 2 2 2 2 2 2 3 2 2 2 2 2 2 2 2 2 2 2 2 2 2 2 1 1 1 2 2 2 1 1 1 1 1 1 1 1 1 1 1
2 2 2 3 3 3 2 2 2 2 2 2 2 2 2 2 2 2 2 2 2 2 2 2 2 2 1 1 1 1 2 2 2 1 1 1 1 1 1 1 1 1 1 2
3 3 3 3 3 3 3 2 2 2 2 2 2 1 1 1 2 2 2 2 2 3 3 2 2 1 1 1 1 1 1 1 1 1 1 1 1 1 1 1 1 1 1 2
2 2 2 2 2 2 2 2 2 2 2 1 1 1 1 1 2 2 2 2 2 2 3 2 2 1 1 1 1 1 2 2 1 1 1 2 2 1 1 1 1 1 1 1
2 2 2 2 2 2 2 1 1 1 1 1 1 1 1 2 2 2 1 2 2 2 2 2 2 1 1 1 1 1 1 2 2 1 1 1 1 1 1 1 1 1 1 2
2 2 2 2 2 2 2 1 1 1 2 2 1 1 2 2 2 2 1 2 3 2 2 2 1 1 1 0 1 1 1 1 1 1 1 1 1 1 1 1 1 1 1 2
2 2 2 2 2 2 2 2 1 1 2 2 1 1 2 2 2 2 2 2 2 3 2 1 1 1 0 1 1 1 1 1 1 1 1 1 1 1 0 1 1 1 2 2
2 2 2 2 2 2 2 2 2 1 2 2 2 2 2 2 2 2 2 2 2 3 2 1 1 1 1 1 1 1 1 1 1 1 1 1 0 0 0 0 1 1 2 2
2 2 2 2 1 1 2 2 2 2 2 2 2 2 2 2 2 2 2 3 3 3 2 1 1 2 2 1 1 1 1 1 0 0 0 0 0 0 1 1 1 1 2 3
2 2 1 1 1 2 2 2 2 2 2 2 2 2 2 2 2 2 2 2 2 2 1 1 2 2 1 1 1 0 0 0 0 0 0 0 1 1 1 1 1 2 2 2
2 2 2 2 2 2 2 2 2 2 2 2 2 2 2 1 1 1 1 1 1 2 1 1 1 1 1 0 0 0 0 0 0 0 1 1 1 1 1 2 2 2 2 3
1 1 1 2 2 2 2 2 2 2 2 2 2 2 2 2 1 1 1 1 1 1 1 1 1 1 0 0 0 0 0 1 1 1 1 1 1 2 2 2 2 2 2 3
Wind_Direction
284 276 223 236 232 225 226 234 238 248 252 259 260 279 295 312 330 332 334 344 346 340 350 22 90 155 155 148 150 158 166 172 181 181 178 174 173 175 176 179 182 184 190 198
274 261 227 247 240 229 234 239 244 257 263 276 287 290 284 288 297 291 302 317 320 314 311 312 307 222 179 160 152 155 164 173 172 172 173 173 173 172 174 177 179 182 190 199
253 268 232 248 235 223 226 234 235 247 262 273 273 276 275 271 272 277 291 305 301 284 273 277 272 245 207 176 158 155 153 160 169 171 175 175 173 174 179 179 180 187 195 202
220 195 227 264 307 243 230 246 256 260 277 271 279 289 281 262 256 281 291 293 291 292 299 297 293 282 176 160 155 157 158 164 173 171 173 176 177 181 185 184 184 191 201 209
210 229 253 280 313 276 235 262 263 265 281 301 319 302 269 314 299 288 290 293 287 279 283 271 263 31 147 152 153 162 173 183 180 178 175 180 185 184 183 182 186 195 206 212
219 236 246 301 342 316 242 252 314 282 278 286 278 264 276 324 318 319 320 320 318 310 330 173 128 130 147 157 161 181 200 197 182 183 182 187 188 180 176 179 186 189 203 216
236 249 264 340 327 286 217 297 331 302 285 266 266 283 306 312 318 328 331 335 344 352 20 51 133 146 152 158 180 190 179 154 159 173 180 179 173 168 163 164 170 181 194 220
227 236 256 359 342 264 317 324 314 311 308 297 302 322 324 332 340 346 354 2 6 13 24 39 116 143 150 165 169 129 129 132 140 152 159 166 158 153 155 156 162 170 169 169
236 263 323 319 310 319 321 312 314 316 320 315 311 318 330 338 346 349 357 4 16 42 49 48 72 110 132 167 140 130 126 126 127 127 134 148 148 147 152 155 161 162 158 176
263 274 298 305 310 329 329 323 324 321 315 302 298 309 325 334 342 352 355 3 16 39 44 36 34 40 60 112 138 137 133 125 123 123 122 122 124 136 149 160 163 163 170 214
265 290 308 298 321 330 333 337 345 346 329 307 286 296 312 322 333 342 351 358 11 24 24 21 36 50 59 93 134 134 128 125 125 121 120 115 105 100 137 180 198 187 204 220
269 290 282 288 305 317 321 330 336 339 338 337 323 309 324 328 333 338 349 359 8 18 25 25 37 50 52 79 133 136 134 131 125 120 118 116 108 80 58 55 40 27 18 324
278 295 290 293 303 311 314 320 328 336 342 343 348 344 341 338 341 350 352 359 4 9 17 25 33 36 30 53 121 138 142 138 132 130 132 133 127 116 89 64 66 70 64 41
287 294 292 306 315 323 328 337 351 8 13 12 8 9 13 11 10 7 357 358 10 23 24 24 29 22 16 33 96 121 130 131 134 140 144 147 143 133 125 109 79 53 44 46
307 295 286 301 321 336 346 2 18 15 11 10 10 8 10 19 18 11 9 14 31 38 26 20 21 13 16 38 93 114 120 128 127 129 136 139 134 127 116 107 89 59 36 34
310 315 311 318 328 338 345 348 346 340 348 352 1 6 12 24 25 22 22 29 39 26 10 6 360 354 8 37 82 104 112 110 114 127 134 130 127 122 110 97 82 66 34 15
300 304 309 306 309 316 314 307 306 309 329 345 349 356 12 30 31 18 11 14 15 7 355 351 345 353 10 34 85 109 112 117 110 114 121 124 124 120 112 105 87 49 15 4
275 276 275 277 282 289 301 310 320 325 327 328 339 354 13 15 2 352 353 6 15 10 360 352 353 7 27 52 89 108 118 123 117 113 112 107 99 88 88 85 75 52 24 12
307 304 305 303 298 289 292 302 316 325 328 330 335 345 354 347 334 333 343 4 4 349 347 357 7 20 43 55 76 118 123 118 108 106 107 105 87 77 70 64 50 33 20 8
331 331 333 334 334 319 303 315 324 326 324 319 328 346 347 337 328 330 347 346 327 319 321 334 349 7 36 65 60 110 119 120 117 115 105 101 93 80 65 56 44 27 12 358
327 335 341 343 341 339 328 318 315 315 324 325 316 309 315 318 316 312 319 330 330 333 326 332 346 350 12 48 53 95 108 114 114 113 106 101 98 89 68 47 27 4 350 342
313 322 330 334 337 336 333 329 315 306 316 321 322 313 310 312 314 316 306 288 301 323 327 323 324 344 31 38 66 91 103 108 103 107 110 109 106 94 46 7 348 338 331 325
294 301 308 312 316 325 330 325 316 303 297 298 294 290 290 293 294 288 304 312 305 318 324 314 326 31 62 48 73 94 103 104 102 114 119 104 93 123 256 302 309 311 311 313
283 286 293 305 316 323 320 319 318 309 297 294 289 284 280 285 298 291 274 293 311 317 318 327 11 33 42 46 79 98 110 118 117 117 116 120 179 237 255 271 288 300 304 308
273 274 278 282 280 282 287 300 308 307 303 301 303 300 288 280 277 290 291 292 315 328 323 338 6 20 30 57 86 102 107 136 162 202 226 251 262 266 267 274 283 291 298 302
267 267 267 263 263 268 272 272 280 291 297 304 316 319 318 310 301 306 315 334 346 347 349 347 351 10 29 52 88 111 137 213 296 283 259 268 266 265 268 275 286 287 292 295
268 269 268 273 278 274 270 265 271 283 284 280 295 311 319 324 329 341 347 351 357 360 355 347 349 357 5 9 342 271 254 257 257 256 255 258 265 271 279 282 285 288 291 292
Height
1456 1454 1455 1454 1454 1455 1454 1450 1447 1443 1445 1445 1447 1448 1449 1450 1450 1450 1449 1449 1449 1449 1449 1450 1451 1452 1453 1454 1456 1458 1460 1462 1464 1466 1468 1470 1472 1474 1475 1476 1477 1479 1479 1480
1457 1455 1453 1453 1450 1451 1451 1449 1448 1446 1445 1446 1448 1449 1449 1449 1449 1449 1448 1448 1448 1448 1448 1449 1450 1451 1452 1453 1454 1456 1458 1459 1461 1463 1465 1467 1469 1470 1472 1473 1474 1475 1476 1476
1452 1454 1453 1450 1448 1448 1448 1448 1447 1444 1444 1447 1448 1448 1447 1448 1448 1447 1447 1447 1447 1447 1447 1448 1448 1449 1450 1452 1453 1454 1456 1457 1459 1461 1462 1464 1466 1467 1468 1469 1470 1471 1472 1473
1454 1454 1453 1447 1448 1448 1448 1448 1448 1447 1446 1446 1447 1447 1447 1446 1446 1446 1446 1445 1445 1445 1446 1446 1447 1448 1449 1450 1451 1452 1454 1455 1456 1458 1459 1461 1463 1464 1465 1466 1467 1468 1469 1469
1453 1448 1444 1447 1449 1450 1449 1448 1448 1447 1446 1447 1447 1445 1445 1445 1444 1444 1444 1444 1443 1444 1444 1444 1445 1446 1447 1448 1449 1450 1451 1453 1454 1455 1457 1458 1459 1460 1462 1463 1464 1465 1466 1466
1454 1448 1444 1445 1449 1449 1450 1445 1447 1447 1446 1446 1445 1442 1441 1442 1442 1442 1442 1442 1441 1442 1442 1443 1443 1444 1445 1446 1447 1448 1449 1450 1451 1453 1454 1455 1456 1457 1459 1460 1461 1462 1462 1463
1453 1448 1443 1449 1450 1449 1447 1445 1447 1446 1445 1445 1444 1443 1443 1441 1440 1440 1439 1439 1439 1439 1440 1441 1441 1442 1443 1444 1445 1446 1447 1448 1449 1450 1451 1452 1454 1455 1456 1457 1458 1459 1459 1460
1453 1449 1448 1451 1450 1450 1449 1448 1446 1445 1444 1444 1443 1441 1440 1439 1438 1438 1437 1437 1437 1437 1438 1439 1440 1441 1441 1442 1443 1444 1445 1446 1447 1448 1449 1450 1451 1452 1453 1454 1455 1456 1456 1456
1454 1452 1452 1452 1451 1451 1450 1448 1446 1444 1443 1442 1441 1440 1439 1438 1437 1437 1436 1436 1436 1436 1437 1438 1439 1440 1440 1441 1441 1442 1443 1444 1445 1446 1447 1448 1449 1450 1451 1451 1452 1453 1453 1453
1454 1451 1452 1451 1450 1449 1448 1446 1444 1443 1442 1441 1440 1439 1438 1437 1437 1436 1435 1435 1435 1435 1436 1436 1437 1438 1439 1439 1440 1441 1442 1443 1444 1444 1445 1446 1447 1448 1448 1449 1449 1450 1451 1451
1453 1452 1451 1449 1449 1448 1446 1445 1443 1442 1441 1440 1439 1438 1438 1437 1436 1435 1435 1435 1435 1434 1435 1435 1436 1437 1438 1438 1439 1439 1440 1441 1442 1443 1443 1444 1445 1446 1447 1448 1448 1449 1449 1449
1450 1452 1452 1449 1448 1447 1445 1443 1442 1440 1439 1439 1438 1437 1437 1436 1436 1435 1434 1434 1434 1434 1434 1434 1435 1436 1436 1437 1437 1438 1439 1439 1440 1441 1441 1442 1443 1444 1445 1446 1447 1447 1448 1448
1452 1451 1450 1448 1446 1445 1444 1442 1441 1440 1439 1437 1437 1437 1437 1436 1435 1435 1434 1434 1433 1433 1433 1434 1434 1435 1435 1436 1436 1437 1437 1438 1439 1440 1440 1441 1442 1442 1443 1444 1445 1446 1446 1446
1450 1449 1447 1446 1445 1444 1442 1441 1440 1439 1438 1438 1437 1436 1436 1435 1435 1434 1434 1433 1433 1433 1433 1433 1434 1434 1435 1435 1435 1435 1436 1437 1438 1439 1439 1440 1441 1441 1442 1442 1442 1443 1444 1444
1448 1447 1446 1445 1444 1442 1442 1441 1439 1439 1438 1437 1437 1436 1435 1435 1434 1434 1433 1433 1433 1433 1433 1433 1433 1433 1434 1434 1434 1434 1435 1436 1437 1438 1438 1439 1440 1440 1441 1441 1441 1441 1441 1442
1447 1445 1445 1444 1443 1442 1441 1440 1439 1438 1437 1436 1436 1435 1435 1434 1433 1433 1433 1433 1432 1432 1432 1432 1432 1433 1432 1433 1433 1433 1434 1435 1436 1437 1437 1438 1439 1439 1440 1440 1440 1440 1440 1440
1445 1444 1443 1442 1441 1440 1440 1439 1438 1437 1437 1436 1435 1435 1434 1433 1433 1432 1432 1432 1432 1432 1432 1432 1432 1432 1432 1432 1432 1432 1433 1434 1435 1435 1436 1437 1438 1438 1438 1439 1439 1439 1439 1439
1444 1443 1442 1441 1440 1439 1438 1438 1438 1437 1436 1435 1434 1434 1433 1433 1432 1432 1431 1431 1431 1431 1431 1431 1431 1431 1431 1431 1431 1431 1432 1432 1433 1434 1435 1436 1436 1437 1437 1437 1437 1437 1437 1437
1442 1442 1441 1440 1439 1438 1437 1437 1436 1436 1435 1434 1434 1433 1433 1432 1432 1431 1431 1430 1430 1429 1430 1430 1430 1430 1430 1430 1430 1431 1431 1432 1432 1433 1434 1435 1435 1436 1436 1436 1436 1436 1436 1436
1441 1440 1439 1438 1438 1437 1436 1436 1435 1435 1434 1434 1433 1432 1432 1431 1431 1431 1430 1429 1429 1429 1429 1429 1429 1429 1429 1429 1430 1430 1430 1431 1432 1432 1433 1434 1434 1435 1435 1435 1435 1435 1435 1434
1440 1439 1438 1437 1437 1436 1436 1435 1434 1433 1433 1432 1432 1431 1430 1430 1430 1430 1429 1428 1429 1429 1428 1428 1428 1428 1429 1429 1429 1429 1430 1431 1431 1432 1432 1433 1433 1433 1434 1434 1434 1434 1433 1433
1439 1438 1437 1436 1436 1435 1434 1434 1433 1432 1432 1431 1431 1430 1429 1429 1429 1428 1428 1428 1428 1428 1427 1427 1427 1428 1428 1428 1428 1429 1429 1430 1430 1431 1431 1432 1432 1432 1432 1432 1432 1432 1432 1432
1438 1437 1436 1435 1435 1434 1433 1433 1432 1431 1430 1430 1429 1429 1428 1428 1427 1427 1427 1427 1427 1426 1426 1426 1426 1426 1427 1427 1427 1428 1428 1429 1429 1430 1430 1430 1431 1431 1431 1431 1431 1431 1430 1430
1436 1435 1435 1434 1433 1433 1432 1431 1430 1430 1429 1429 1428 1428 1427 1426 1426 1426 1425 1425 1425 1425 1425 1425 1425 1425 1426 1426 1426 1427 1427 1428 1428 1428 1429 1429 1429 1429 1429 1429 1429 1429 1429 1428
1434 1434 1433 1432 1432 1431 1430 1430 1429 1428 1428 1427 1427 1426 1426 1425 1425 1424 1424 1424 1424 1424 1424 1424 1424 1424 1425 1425 1425 1425 1426 1426 1427 1427 1427 1427 1428 1428 1428 1428 1428 1427 1427 1426
1432 1431 1431 1430 1430 1429 1429 1428 1427 1427 1426 1426 1425 1425 1424 1424 1423 1423 1423 1423 1423 1423 1423 1423 1423 1423 1423 1424 1424 1424 1425 1425 1426 1426 1426 1426 1426 1426 1426 1426 1426 1425 1425 1424
1430 1429 1429 1429 1428 1428 1427 1427 1426 1426 1425 1424 1424 1423 1423 1423 1422 1422 1422 1422 1422 1422 1422 1422 1422 1422 1422 1422 1423 1423 1424 1424 1424 1424 1425 1425 1425 1425 1424 1424 1424 1423 1423 1422